RH
67 94 64 49 40 41 44 48 41 25 25 18 17 18 20 18 16 16 16 17 19 21 22 25 26 26 34 43 60 50 54 88 88 77 69 71 67 74 75 73 70 73 74
61 73 55 47 41 42 41 45 51 28 27 22 19 20 21 22 22 21 23 30 36 47 42 31 34 40 43 42 43 42 46 65 71 74 85 99 95 94 94 85 83 83 84
50 58 53 44 42 40 42 53 65 32 25 26 21 21 23 26 27 28 29 35 28 35 42 45 42 40 39 41 39 48 71 87 87 90 84 69 80 81 68 86 92 86 76
49 59 44 42 46 44 46 62 68 37 24 28 26 22 22 27 30 32 33 35 36 36 36 38 42 45 48 53 54 54 52 62 68 72 79 76 57 55 76 76 65 62 58
48 45 46 50 50 47 52 74 63 35 24 28 30 27 25 25 26 28 30 30 32 33 34 34 35 37 40 42 45 49 53 55 54 54 53 54 54 52 51 51 52 62 65
57 54 57 66 61 53 81 80 51 31 25 29 32 31 31 32 32 33 34 32 33 36 34 36 36 38 39 40 36 31 30 33 40 49 54 54 53 54 57 57 56 54 55
69 66 62 63 56 62 98 79 61 31 30 31 34 32 33 34 35 38 37 37 39 45 44 42 52 58 55 49 41 36 32 33 36 38 41 42 43 50 52 56 58 60 65
79 71 60 51 60 76 100 92 58 37 33 34 37 38 40 45 49 46 45 45 49 49 50 51 55 46 38 35 35 35 37 37 35 35 40 45 44 42 41 45 52 55 56
76 70 46 66 72 86 100 94 59 49 43 39 39 41 50 58 59 68 63 58 48 48 42 43 40 39 36 35 34 36 44 46 44 39 37 38 46 44 40 39 43 43 42
56 36 59 55 73 80 100 91 69 64 59 58 63 58 57 64 84 85 76 71 51 61 52 47 45 45 44 38 34 31 33 34 30 29 33 34 34 35 36 35 35 35 37
45 46 50 76 82 73 86 81 73 69 65 70 91 94 92 88 81 73 57 55 59 58 58 54 49 65 68 57 40 40 37 27 18 13 15 22 27 29 31 32 31 31 32
53 68 91 80 73 64 81 78 73 71 70 92 86 81 71 63 46 36 46 65 61 55 52 48 65 71 52 36 34 24 14 11 10 10 9 10 10 13 17 20 24 23 22
56 60 61 62 59 75 91 88 88 84 91 90 88 73 64 46 44 51 59 53 32 29 31 33 34 33 32 25 14 12 13 15 16 16 16 16 15 15 13 11 12 12 13
61 59 63 67 82 94 95 100 100 100 100 93 72 56 50 45 62 38 35 30 26 24 25 22 18 16 15 14 15 17 18 17 17 17 18 19 18 17 17 16 14 13 13
74 76 80 87 92 85 89 99 100 97 81 70 63 64 66 59 38 36 30 22 13 12 14 15 16 17 19 20 18 18 18 19 19 19 19 18 18 17 17 17 17 16 15
77 93 87 100 100 100 100 86 78 92 87 84 63 49 39 38 35 29 17 12 11 13 15 18 20 22 22 21 20 20 18 18 18 19 19 20 20 21 21 21 21 21 21
100 100 100 100 100 97 78 86 96 100 92 70 54 37 42 36 25 15 14 13 12 17 22 23 22 20 18 16 16 16 15 15 15 18 20 20 21 20 21 22 21 22 22
45 72 98 100 90 100 100 100 98 87 75 69 59 42 34 21 16 18 14 13 14 16 17 16 15 15 16 16 17 19 22 24 25 26 28 30 30 33 32 34 34 28 26
42 74 100 100 100 100 100 77 71 56 41 44 31 18 17 17 19 17 15 13 13 13 15 17 17 20 24 29 31 34 36 42 46 59 55 56 54 57 60 58 58 54 48
91 100 100 100 100 96 67 56 50 22 20 16 16 17 17 21 20 17 14 14 14 16 22 26 30 34 34 37 41 38 47 55 57 63 59 67 68 67 69 63 56 52 49
100 94 75 58 48 29 23 20 18 18 19 17 19 20 25 23 20 18 16 18 26 30 31 37 41 40 39 34 36 38 37 41 46 54 60 61 63 63 67 68 61 58 60
23 24 20 19 18 18 18 19 19 20 22 17 22 28 27 24 22 21 22 28 34 40 42 43 45 51 56 62 59 53 62 60 64 67 64 60 66 64 63 62 61 61 59
17 18 18 17 18 18 18 19 19 22 21 20 26 33 28 28 24 22 30 48 63 65 73 76 77 48 57 89 88 83 89 84 84 88 82 68 71 77 76 72 73 73 66
18 18 18 18 18 19 18 18 20 23 19 25 33 33 30 27 26 25 31 58 75 85 97 100 97 76 78 81 100 100 100 100 100 100 100 92 80 74 88 83 94 78 76
18 18 17 18 18 18 18 20 24 22 23 32 36 33 32 29 29 36 36 57 75 90 92 96 92 79 63 63 64 71 77 80 94 91 89 85 94 82 78 83 79 92 88
17 17 17 18 18 19 22 25 26 23 30 39 39 37 31 31 31 34 40 56 67 83 95 95 70 55 63 65 60 60 67 70 80 89 86 75 82 93 75 78 92 96 93
Wind_Speed
27 28 28 29 27 28 28 27 27 26 27 25 22 20 18 16 13 12 12 11 12 14 17 19 22 25 28 33 36 35 34 35 35 35 36 37 38 37 38 37 35 34 34
28 28 29 30 27 29 29 29 29 26 25 25 24 21 21 19 17 15 14 14 13 14 15 16 17 19 21 22 25 27 29 32 36 38 41 44 43 41 41 41 39 39 40
30 31 32 31 29 30 31 30 30 26 24 25 25 23 21 21 19 17 17 17 19 20 20 20 20 21 22 24 25 26 26 27 28 30 30 32 33 36 40 44 47 48 46
31 32 33 32 32 33 32 31 29 27 26 25 26 25 25 24 24 24 23 23 24 25 27 28 28 28 28 28 29 31 32 33 35 37 37 36 36 36 35 35 35 36 38
34 34 35 36 36 35 33 33 27 28 27 29 29 29 28 27 27 29 30 30 31 31 31 32 34 35 36 36 38 39 40 41 42 43 43 43 41 42 41 40 38 39 38
37 38 39 42 38 36 34 30 26 28 29 30 32 33 33 33 35 35 35 33 37 38 38 42 43 43 44 45 48 49 50 50 49 49 49 49 49 49 48 47 46 46 46
39 40 43 39 38 33 35 28 29 31 31 32 35 36 37 38 39 40 41 40 44 44 46 49 50 49 52 54 56 57 57 57 59 57 57 56 55 55 56 55 55 52 52
41 41 41 40 36 33 35 31 32 32 33 36 39 40 39 41 43 45 46 48 49 51 54 54 52 54 57 60 62 61 61 60 60 62 63 64 65 64 62 62 61 60 60
43 41 39 35 34 35 39 35 34 34 36 38 42 44 44 45 47 50 51 51 55 57 57 59 59 63 64 64 65 65 67 68 69 69 69 68 69 70 70 69 68 67 66
38 39 37 34 33 36 39 36 36 38 39 43 44 45 47 49 52 53 55 58 62 63 64 67 67 70 70 70 70 70 72 72 71 73 75 76 75 75 75 76 75 75 74
40 36 38 36 41 42 40 41 44 46 47 52 50 49 50 53 56 58 62 65 68 69 70 74 76 77 77 81 79 78 78 76 73 72 71 73 77 79 80 80 81 81 80
38 36 39 43 46 44 41 46 48 49 53 56 54 53 55 56 60 64 66 69 74 77 78 79 81 83 84 81 81 79 76 73 72 72 72 72 73 75 77 78 79 79 81
41 43 43 44 46 45 47 49 51 55 59 58 57 60 60 62 65 68 72 75 80 78 79 82 83 83 83 81 77 73 70 67 66 65 65 65 65 68 75 79 78 78 78
47 46 44 46 50 51 52 53 57 60 61 63 62 63 64 67 69 75 78 78 78 77 79 80 80 78 75 70 64 60 60 60 61 61 61 62 61 60 59 62 71 74 74
44 45 44 48 52 55 57 58 61 62 64 66 67 67 68 71 77 79 78 73 67 67 70 70 68 63 56 51 49 46 44 43 43 42 42 43 44 46 49 52 55 60 65
47 47 51 54 56 57 59 61 64 64 66 67 70 73 74 76 80 74 69 62 60 63 59 53 47 43 38 37 38 36 36 36 36 37 37 38 39 38 39 40 41 44 47
50 50 53 57 58 59 62 63 63 65 69 73 77 74 78 77 70 62 60 56 50 42 34 31 31 32 33 34 32 32 33 33 32 32 33 34 34 35 36 37 38 39 42
52 52 55 57 61 60 59 61 62 68 75 74 77 80 75 66 61 56 42 43 35 31 30 31 31 30 31 30 30 29 28 29 29 29 28 28 29 30 31 32 33 35 36
45 49 56 55 55 55 59 64 66 67 70 73 75 66 62 59 51 48 44 37 32 30 28 27 27 26 26 28 28 27 28 27 26 28 28 28 31 30 31 34 35 35 37
45 47 49 53 57 62 65 67 69 66 66 64 66 64 58 49 44 43 39 36 33 30 28 28 27 27 27 27 27 26 25 25 25 29 29 31 33 35 38 40 42 41 41
51 56 58 60 62 62 62 62 63 63 64 60 61 60 47 41 41 40 37 33 28 27 28 29 29 30 31 32 30 31 33 31 32 31 31 35 36 40 43 46 46 46 47
51 53 55 55 56 59 60 62 62 63 61 57 56 51 40 39 40 38 34 30 27 27 29 32 33 34 36 39 43 42 43 43 42 44 44 44 44 46 49 50 50 51 52
52 54 57 59 60 59 60 63 64 63 59 54 51 40 38 40 37 36 29 30 30 32 36 39 40 40 42 43 46 47 47 48 48 49 49 48 49 52 52 53 56 57 58
57 58 60 62 62 62 63 64 63 60 55 50 43 34 39 39 38 36 32 35 36 39 41 43 45 44 45 48 50 50 51 51 52 55 55 53 55 54 54 56 58 58 61
60 61 63 65 64 66 66 65 62 57 51 45 35 35 38 38 38 35 35 38 39 39 42 42 44 47 50 51 51 54 55 57 59 58 60 59 61 59 59 61 61 64 65
63 65 67 68 67 69 69 63 57 52 44 36 34 37 38 39 38 37 39 41 41 43 45 46 48 49 51 53 56 57 59 61 64 66 64 69 69 68 64 66 68 71 70
Wind_Direction
298 300 306 315 316 316 319 321 324 324 333 330 327 325 329 327 322 317 311 305 292 282 278 277 276 274 271 270 270 271 269 267 272 273 271 269 271 271 271 269 268 269 272
295 294 302 308 310 310 314 317 318 316 327 328 324 321 320 320 316 314 304 301 296 293 289 286 285 283 282 280 278 276 273 272 270 269 267 265 271 270 269 269 266 272 272
290 291 300 304 303 308 310 315 313 308 316 324 319 315 311 307 301 297 294 290 290 287 287 287 287 285 285 285 284 281 277 273 273 271 272 273 273 273 269 266 267 271 270
287 289 296 302 303 305 309 312 306 302 304 316 315 309 304 300 295 288 285 280 280 282 283 283 281 277 275 277 279 278 275 272 273 274 272 269 271 270 268 268 268 269 268
288 291 296 301 303 303 307 310 301 297 299 308 308 306 300 296 292 290 287 286 285 284 285 283 281 278 278 278 279 280 275 272 269 270 270 268 270 268 266 265 265 265 265
289 291 296 300 300 302 309 303 296 295 295 299 305 304 300 298 295 294 293 294 300 297 295 302 303 300 296 294 294 293 287 282 277 272 268 267 266 266 266 265 262 261 262
288 291 296 296 297 301 306 291 294 291 294 295 302 307 299 296 296 295 294 293 301 299 298 298 297 296 296 294 294 293 290 287 282 280 275 273 269 266 265 265 263 261 262
286 290 294 294 295 296 299 288 292 293 297 295 299 300 297 297 295 293 292 292 295 295 296 296 294 294 295 293 292 290 289 286 283 279 276 275 274 270 266 266 266 264 261
286 290 292 288 293 295 297 282 289 295 298 293 294 294 294 292 294 293 291 291 295 296 296 296 291 294 294 293 290 287 286 285 282 278 274 272 271 272 271 270 268 266 263
290 292 284 286 301 297 291 277 284 295 295 298 297 292 291 291 293 293 293 293 295 293 291 296 295 295 295 294 291 288 288 286 282 278 273 270 268 267 268 268 267 267 266
288 288 287 285 293 296 287 279 280 287 294 298 295 293 291 293 294 296 296 295 296 295 295 295 296 295 294 293 292 290 287 285 281 278 275 271 268 267 267 267 266 265 265
287 282 284 291 296 294 287 279 281 285 291 296 296 294 292 293 294 299 299 298 299 297 296 295 293 291 291 290 290 290 287 285 283 281 277 273 270 269 267 265 265 264 265
293 290 289 290 292 292 284 280 283 285 290 293 294 293 292 294 296 299 297 294 297 294 292 292 291 290 290 291 291 291 288 287 284 281 279 277 275 274 270 265 263 263 263
291 293 290 290 288 291 288 287 288 289 292 293 294 293 293 298 298 299 300 297 294 293 292 290 290 291 293 294 293 291 290 287 285 284 282 278 277 277 277 272 266 265 265
286 289 290 288 286 287 287 289 290 293 295 294 296 298 298 297 299 302 301 300 298 293 290 291 294 296 296 294 293 294 296 296 295 294 293 291 288 285 282 278 274 271 268
284 288 288 283 282 286 290 292 293 294 294 294 295 299 302 302 305 306 306 308 301 294 291 292 294 295 296 295 294 293 292 292 292 290 289 287 285 284 282 280 279 277 275
280 283 280 281 286 289 289 291 291 293 295 297 300 302 304 308 308 307 307 311 307 299 296 296 295 295 292 293 292 291 295 296 296 295 293 289 287 284 280 278 277 275 274
282 284 285 285 286 288 290 292 298 300 301 303 304 305 308 308 307 305 309 315 317 316 309 304 302 297 297 298 300 303 307 307 309 309 308 304 302 301 298 296 292 288 284
288 287 286 285 287 291 296 299 301 305 304 304 306 309 309 309 304 303 303 306 313 318 317 317 317 322 325 324 320 321 322 323 326 326 320 314 309 306 303 302 301 301 299
286 282 285 288 291 295 297 298 301 303 306 305 307 308 310 308 309 307 311 314 320 322 326 327 327 324 321 320 317 319 319 321 317 314 314 315 311 310 308 306 303 299 300
278 284 287 290 292 294 296 298 301 304 304 307 309 311 309 310 314 318 326 326 328 328 325 324 325 324 324 319 313 314 319 315 315 312 309 310 310 311 310 308 306 302 302
285 285 285 286 290 293 296 298 302 303 305 307 307 307 307 313 321 322 321 324 325 325 327 325 326 326 326 326 329 326 328 325 322 320 318 316 316 310 309 308 306 304 303
285 285 287 290 293 294 295 299 301 302 301 303 304 298 306 311 314 317 317 319 321 323 324 324 323 322 325 323 324 323 322 320 319 317 316 313 313 312 308 308 308 305 303
285 287 290 291 293 296 297 299 301 298 299 300 296 295 303 307 310 312 308 314 320 320 319 316 315 317 319 320 319 320 319 316 315 314 310 310 309 309 308 308 308 307 305
288 289 289 292 295 298 299 300 298 295 297 296 289 294 300 302 303 305 303 308 310 310 310 312 313 315 316 317 315 313 311 311 312 308 308 306 305 306 305 305 305 306 304
290 291 291 294 298 301 300 296 292 291 293 284 287 293 297 294 295 297 301 301 305 306 309 312 312 311 313 312 309 308 308 308 307 306 302 302 303 304 303 303 304 303 304